CAPE
511 435 360 349 317 148 118 140 215 307 329 296 176 85 101 242 335 331 190 32 12 26 0 0 0 0 0 19 6 11 175 171
285 426 417 453 264 64 54 82 133 167 197 131 71 47 67 116 129 108 16 0 0 0 0 0 0 0 0 0 28 31 361 276
339 336 402 426 302 153 40 40 81 122 167 98 76 181 185 152 110 0 0 0 0 0 0 0 0 0 0 0 0 1 283 413
274 295 299 346 263 309 332 335 334 383 359 242 259 337 269 124 22 0 0 0 0 0 0 0 0 0 0 0 0 0 254 428
330 312 347 279 272 416 451 550 555 529 408 266 218 245 200 86 23 0 0 0 0 0 0 0 0 0 0 0 0 173 587 500
396 360 325 384 405 291 368 373 495 418 358 221 130 130 162 78 9 0 0 0 0 0 0 0 0 0 0 19 2 0 640 660
393 410 306 430 384 324 350 347 389 360 259 193 148 74 59 63 24 0 0 0 0 0 0 0 0 0 20 233 107 0 98 649
502 438 484 443 396 392 383 375 375 322 197 139 151 65 48 50 19 0 0 0 0 0 0 0 0 0 98 389 380 7 222 626
561 374 556 422 452 489 449 368 303 197 168 127 150 85 45 29 10 0 0 0 0 0 0 0 0 66 431 615 642 188 32 369
633 706 564 475 525 522 446 420 274 181 150 90 133 94 51 33 5 0 0 0 0 0 0 0 27 410 711 829 900 547 38 89
461 621 725 703 678 593 485 393 235 162 97 67 117 95 58 35 9 0 4 0 0 0 0 0 167 508 723 865 1038 801 542 5
383 508 564 686 654 479 382 275 157 111 100 162 131 99 49 45 13 5 3 0 22 8 0 0 183 655 510 887 1087 607 474 411
313 385 417 415 392 305 309 232 144 139 232 228 174 119 70 35 20 9 10 30 87 105 43 0 53 449 702 741 178 29 6 43
394 361 378 344 278 285 244 178 107 156 273 297 251 159 102 38 19 16 52 89 114 147 72 45 206 394 776 1058 578 100 0 0
593 554 492 398 344 261 226 141 173 169 227 318 272 185 113 81 40 31 71 124 199 179 213 178 290 280 480 855 479 499 0 0
653 644 646 487 405 297 285 202 150 137 269 298 328 244 172 110 80 50 74 114 242 311 262 328 330 421 392 397 214 204 191 0
714 658 646 655 578 445 345 239 182 187 364 354 333 343 301 155 102 84 68 96 227 345 370 412 436 526 546 515 270 116 11 0
901 741 680 645 592 445 323 281 220 137 181 187 249 328 353 332 199 143 121 119 147 266 405 540 547 553 624 582 513 346 172 6
1174 971 867 711 683 557 427 385 284 197 154 146 130 141 213 280 316 266 213 211 210 266 303 439 644 639 590 602 629 505 226 21
1180 1144 1052 907 837 772 641 509 376 335 234 224 189 154 155 246 334 351 352 322 314 322 319 433 563 753 692 585 586 569 248 50
CIN
-444 -433 -430 -404 -396 -430 -449 -448 -432 -407 -389 -395 -416 -449 -401 -327 -298 -303 -336 -425 -442 -415 -13 -0 -0 -0 -0 -372 -415 -381 -181 -172
-496 -419 -392 -354 -408 -448 -474 -462 -457 -446 -424 -449 -476 -460 -409 -360 -362 -373 -413 -0 -0 -0 -0 -0 -0 -0 -0 -0 -335 -317 -157 -157
-454 -443 -389 -363 -382 -411 -446 -457 -463 -447 -416 -447 -462 -355 -347 -347 -355 -0 -0 -0 -0 -0 -0 -0 -0 -0 -0 -0 -0 -147 -174 -130
-449 -432 -417 -384 -390 -365 -324 -322 -324 -310 -331 -363 -339 -308 -324 -353 -308 -0 -0 -0 -0 -0 -0 -0 -0 -0 -0 -0 -0 -0 -162 -118
-451 -451 -417 -409 -406 -350 -320 -265 -270 -260 -312 -363 -366 -353 -359 -387 -303 -0 -0 -0 -0 -0 -0 -0 -0 -0 -0 -0 -0 -172 -85 -84
-425 -425 -457 -412 -371 -399 -359 -358 -302 -334 -336 -391 -429 -422 -391 -414 -340 -0 -0 -0 -0 -0 -0 -0 -0 -0 -0 -219 -25 -0 -69 -58
-460 -430 -457 -411 -385 -379 -361 -355 -347 -356 -394 -408 -439 -470 -488 -460 -474 -0 -0 -0 -0 -0 -0 -0 -0 -0 -190 -127 -141 -36 -167 -43
-460 -452 -403 -388 -394 -363 -353 -336 -333 -351 -420 -451 -440 -483 -493 -486 -518 -0 -0 -0 -0 -0 -0 -0 -0 -0 -149 -83 -73 -45 -98 -39
-431 -500 -392 -407 -365 -330 -310 -332 -337 -385 -427 -450 -420 -461 -506 -515 -537 -0 -0 -0 -0 -0 -0 -0 -0 -187 -69 -38 -29 -86 -138 -45
-319 -342 -402 -405 -342 -323 -317 -301 -347 -382 -410 -464 -421 -442 -489 -520 -441 -0 -0 -0 -0 -0 -0 -0 -79 -90 -30 -24 -21 -40 -145 -107
-400 -322 -327 -338 -298 -292 -297 -314 -361 -383 -416 -467 -423 -416 -473 -489 -544 -0 -326 -0 -0 -0 -0 -0 -160 -70 -27 -21 -21 -38 -64 -72
-393 -334 -300 -280 -264 -291 -301 -341 -381 -400 -412 -367 -390 -399 -466 -466 -500 -552 -463 -0 -488 -351 -0 -0 -148 -24 -36 -16 -16 -64 -83 -87
-443 -393 -373 -329 -347 -373 -371 -427 -456 -422 -372 -343 -377 -397 -437 -472 -486 -539 -567 -507 -395 -367 -400 -0 -247 -71 -24 -14 -123 -258 -294 -247
-437 -448 -398 -404 -415 -412 -404 -440 -462 -428 -356 -332 -356 -392 -413 -466 -490 -497 -485 -390 -377 -340 -376 -349 -181 -108 -9 -1 -7 -164 -0 -0
-416 -439 -441 -440 -399 -380 -366 -405 -378 -390 -396 -383 -375 -378 -412 -435 -482 -465 -428 -376 -317 -317 -286 -260 -158 -145 -70 -5 -16 -22 -0 -0
-426 -405 -413 -431 -396 -417 -416 -506 -570 -608 -465 -443 -381 -375 -410 -432 -433 -441 -426 -412 -327 -286 -285 -234 -182 -119 -107 -93 -144 -149 -102 -0
-394 -425 -390 -409 -401 -429 -451 -502 -539 -481 -405 -420 -411 -376 -369 -420 -433 -441 -443 -425 -353 -295 -268 -238 -208 -128 -102 -97 -141 -208 -303 -0
-335 -369 -406 -444 -449 -472 -521 -522 -532 -525 -545 -534 -492 -427 -382 -380 -416 -459 -447 -436 -423 -352 -283 -226 -211 -166 -109 -103 -88 -113 -176 -58
-277 -328 -356 -425 -458 -453 -502 -508 -533 -504 -552 -576 -552 -543 -506 -511 -457 -450 -470 -457 -426 -369 -338 -284 -228 -181 -175 -153 -92 -92 -125 -212
-234 -301 -325 -376 -432 -436 -471 -493 -495 -494 -510 -521 -536 -551 -563 -534 -496 -442 -433 -404 -395 -368 -348 -302 -260 -199 -195 -176 -145 -99 -149 -257
Wind_Speed
20 21 21 20 22 22 22 22 22 23 23 23 24 24 24 25 25 24 23 23 22 20 18 17 17 17 18 20 23 23 23 22
21 21 20 20 20 22 22 22 21 21 22 21 22 22 22 23 23 23 23 22 20 18 17 16 16 17 16 18 20 20 20 20
21 20 20 18 18 20 20 20 19 18 19 20 20 19 20 20 21 21 21 20 19 18 17 15 15 15 15 15 16 17 18 18
22 20 20 18 16 19 18 17 16 15 16 19 17 17 18 18 18 19 18 18 17 17 16 16 15 14 14 15 15 16 16 17
23 20 19 18 15 16 15 14 13 13 14 17 14 13 14 15 14 15 16 16 16 15 14 14 14 14 13 14 14 15 15 16
22 21 19 18 15 15 14 13 12 11 12 13 11 10 12 12 12 13 13 14 14 14 13 12 12 12 12 12 13 14 14 14
23 21 20 18 17 14 14 13 13 10 10 12 10 8 9 11 10 10 10 11 11 11 12 12 13 12 11 11 12 12 13 13
21 22 20 18 18 16 14 13 13 11 10 11 11 7 8 8 8 8 9 9 8 8 9 9 10 10 10 11 12 12 13 12
20 20 19 19 18 16 14 14 13 12 10 13 13 8 7 8 7 7 8 7 7 6 7 7 8 9 10 10 11 11 12 12
19 18 19 19 18 16 15 13 13 12 11 12 17 12 8 7 6 6 7 5 5 5 5 5 6 7 8 9 10 10 10 10
21 19 19 19 18 16 14 14 15 13 13 13 18 14 10 8 6 7 7 6 4 3 3 4 4 5 7 9 11 10 11 10
24 22 20 18 18 17 17 17 16 15 15 17 17 17 13 10 8 6 8 6 4 4 4 3 3 4 6 9 11 12 12 12
24 22 20 19 19 19 17 19 17 17 16 19 18 18 16 14 11 8 8 8 6 5 3 3 0 3 6 8 11 13 13 14
24 23 21 21 20 18 20 18 20 22 24 18 18 19 18 16 14 12 10 8 7 6 5 2 2 1 4 5 9 11 14 14
26 24 23 21 20 20 19 17 20 17 17 18 20 20 20 19 17 14 12 10 9 8 8 7 4 4 4 7 10 9 9 14
27 26 24 22 20 19 21 19 18 19 17 19 18 19 21 20 18 17 15 14 12 11 10 10 6 6 7 9 12 10 10 12
31 30 27 24 23 21 20 20 16 14 14 15 17 18 21 21 21 19 18 17 15 14 13 12 11 9 8 8 11 11 11 13
32 35 31 27 25 24 24 26 17 14 14 15 16 17 19 21 21 21 20 19 18 17 15 15 14 12 10 9 10 10 12 13
35 34 36 31 27 26 26 25 21 20 17 15 15 17 17 22 23 22 21 21 19 18 17 17 17 15 14 12 11 11 14 14
38 36 36 34 30 29 27 25 23 22 21 19 17 17 18 18 20 21 21 20 20 19 18 19 18 17 17 15 14 13 13 14
Wind_Direction
144 143 140 137 134 130 127 123 120 119 117 114 112 109 110 112 112 107 106 102 99 88 78 68 61 58 52 59 89 89 76 65
152 149 146 143 138 135 132 129 124 122 120 116 114 111 111 113 113 112 111 105 98 87 78 69 67 65 57 60 79 74 67 62
160 157 154 150 144 141 137 133 129 124 121 120 116 113 113 114 117 114 112 107 101 92 84 73 66 60 56 61 62 61 71 63
167 165 162 157 151 147 142 137 133 129 126 127 120 116 115 114 113 114 111 107 99 95 88 85 79 68 62 68 56 65 70 71
171 172 170 166 163 156 151 147 142 138 135 133 123 115 112 109 106 109 110 109 103 96 88 87 80 74 63 57 50 52 54 63
173 175 176 174 173 169 164 161 156 151 146 140 131 122 119 114 107 108 107 110 105 100 90 74 69 62 54 48 48 45 59 59
177 177 179 178 178 180 176 174 169 168 162 153 145 137 129 121 113 109 104 98 100 90 86 84 80 66 45 38 40 40 55 62
181 182 184 185 180 184 186 185 178 178 177 167 160 158 143 133 122 114 107 99 87 75 72 76 65 59 48 33 34 43 57 60
191 189 188 189 187 186 189 189 188 189 192 175 171 175 168 149 136 125 118 102 86 67 57 50 48 47 46 31 26 38 51 56
214 203 195 195 192 192 198 203 209 207 204 188 176 180 192 170 156 145 127 112 96 86 67 56 54 47 32 18 12 28 40 38
214 213 200 198 199 206 214 220 227 220 216 198 183 185 205 206 187 161 146 136 120 94 52 57 50 38 23 9 2 12 14 19
228 228 225 210 222 228 235 237 227 226 207 193 191 189 199 216 225 189 165 159 152 143 129 98 22 14 4 357 356 354 358 350
225 220 211 208 209 203 208 198 211 225 211 196 198 196 197 210 227 209 185 181 179 165 159 158 139 353 350 349 347 346 350 339
218 210 209 205 205 215 237 233 242 245 247 224 210 202 202 209 219 215 203 206 201 186 182 236 225 245 322 340 334 337 336 340
218 212 205 205 208 231 240 240 251 232 218 216 206 206 207 208 212 223 223 221 214 205 194 195 225 264 276 317 324 328 333 337
226 224 217 214 210 214 199 204 208 201 231 241 234 214 206 209 214 218 225 229 227 221 215 210 230 248 272 277 307 332 328 327
235 230 226 221 211 208 206 200 210 238 228 222 222 227 227 223 222 226 229 231 231 231 227 220 223 237 247 266 281 304 318 321
238 235 231 225 217 212 208 199 214 222 209 219 220 231 232 224 223 227 227 232 230 230 233 227 229 232 233 242 248 274 292 305
241 237 237 231 223 223 216 210 216 221 223 217 226 227 223 210 214 217 223 226 234 239 236 232 228 230 232 235 241 253 289 295
241 239 238 237 233 226 225 225 233 229 230 232 226 226 220 233 220 221 225 232 235 238 239 236 232 231 230 234 247 249 268 278